Pagina principale
METAR-TAF:

METAR-TAF

Aeroporti :

Meiringen, Svizzera

latitudine: 46-44-25N, longitudine: 8-06-36E, altezza: 577 m

Osservazione

Il bollettino è stato emesso 31 minuti fa, alle 13:20 UTC
Vento calmo
Temperature 1°C
Umidità 86%
Pressione 1010 hPa
Visibilità: 7000 m
Cielo coperto ad un'altezza di 3800 ft

METAR: LSMM 171320Z 00000KT 7000 OVC038 01/M01 Q1010 RMK WHT

Ora: 14:51 (13:51 UTC)


TAF: mancante

Osservazioni e previsioni meteorologiche di più di 4000 aeroporti (messaggi METAR e TAF).

Le stazioni disponibili sono rappresentate dai dischi gialli e rossi sulla carta.

Puntare il mouse per vedere il nome della stazione.

Clicca sopra per visualizzare le osservazioni e previsioni meteorologiche.

Per cambiare la mappa : fare clic sui pulsanti verdi con una croce nera per ingrandire, il pulsante verde con un trattino per diminuire, o sulla freccia verde per le mappe adiacenti.


METAR-TAF: